Location: Neuvy Saint Sepulchre
(46.5953°N, 1.8122°E)
Time: 10:55:50
(UTC+01:00)

ISS - Pass Details

Date: 04 December 2019
Orbit: 411 x 421 km, 51.6° (Epoch: 16 December)

Event Time Altitude Azimuth Distance (km) Brightness Sun altitude
Rises 18:22:46 0° 291° (WNW) 2,358 0.9 -12.7°
Reaches altitude 10° 18:24:58 10° 300° (WNW) 1,497 -0.4 -13.0°
Maximum altitude 18:28:07 36° 9° (N) 677 -3.0 -13.5°
Enters shadow 18:29:24 26° 56° (NE) 871 -2.7 -13.8°
